RH
44 43 43 43 42 43 45 46 46 46 47 48 48 49 53 60 64 66 66 65 61 58 59 62 61 60 64 69 74 78 81 84 85 83 81 81 82 81 81 83 84 85
41 41 42 43 44 46 48 49 50 51 50 51 52 53 53 56 60 63 69 73 70 65 63 64 63 61 64 68 73 77 80 83 85 84 83 83 81 80 80 81 82 83
41 42 43 43 45 48 51 52 53 54 53 51 52 53 53 54 57 62 69 72 71 69 68 67 65 63 63 67 71 75 77 79 82 83 84 83 80 80 81 81 81 81
43 44 45 46 48 51 54 54 54 54 53 52 53 56 59 60 62 65 69 68 68 71 72 70 67 64 62 65 69 71 73 75 78 80 81 81 79 79 79 80 80 79
44 46 47 48 50 53 54 54 53 52 52 54 56 61 67 67 67 70 74 72 69 70 70 69 68 67 66 67 68 69 71 75 79 81 80 79 77 76 76 77 76 75
48 48 48 50 53 54 53 51 51 51 54 58 61 66 71 71 69 71 74 74 72 71 69 68 70 71 71 71 70 69 69 73 79 81 80 77 76 75 74 74 74 75
50 50 50 52 54 53 50 50 52 54 59 64 66 70 74 75 74 75 76 76 75 74 74 72 72 75 75 73 72 71 69 71 77 80 80 79 76 75 74 73 73 76
50 51 51 52 51 49 49 51 54 57 64 69 70 73 77 79 78 76 77 78 74 75 81 81 80 81 78 75 72 72 72 72 74 79 82 81 79 77 76 75 75 77
50 49 48 48 48 48 49 52 55 60 68 74 74 75 79 81 79 74 73 74 71 75 85 87 85 86 82 77 75 75 75 75 76 78 81 81 80 79 78 78 78 78
48 45 44 46 46 47 49 51 56 61 69 76 78 78 80 81 77 72 71 71 72 77 83 83 82 85 86 82 83 84 83 84 83 80 80 80 79 79 79 79 79 79
45 43 44 45 45 46 49 52 56 61 68 76 79 78 80 81 77 73 71 73 75 76 79 78 77 82 87 88 90 90 87 88 87 83 83 82 80 80 79 79 79 80
45 44 44 45 45 47 49 51 55 62 67 72 77 78 80 81 81 78 75 76 77 76 75 75 76 80 86 89 91 90 88 88 87 85 84 83 81 82 80 79 81 82
45 45 45 46 46 48 50 50 52 59 64 67 73 79 80 81 82 81 79 77 76 76 75 73 75 80 83 84 86 90 90 90 90 89 88 86 84 84 83 84 84 83
45 45 45 46 47 48 49 49 49 54 58 61 67 76 80 82 82 82 83 82 79 78 77 74 76 80 83 82 83 87 89 90 91 91 90 90 87 85 86 87 85 83
45 44 44 44 46 47 47 47 46 49 53 57 62 70 78 83 84 81 83 85 85 82 79 77 78 80 82 82 81 82 85 87 89 89 89 90 88 86 87 87 84 83
45 43 43 42 44 45 45 45 46 47 51 54 58 63 71 80 86 85 82 82 84 84 81 79 81 82 82 84 84 84 84 85 86 87 87 87 88 88 87 85 84 84
45 43 42 41 42 42 43 43 43 44 47 52 56 59 63 71 82 88 87 82 82 83 82 81 84 84 83 85 86 87 90 88 87 88 86 85 86 87 85 83 85 88
47 45 43 41 41 41 41 41 39 40 43 48 55 58 59 64 73 85 90 87 85 85 83 82 83 84 85 86 86 87 90 91 90 91 90 88 87 86 83 81 84 90
47 46 44 43 42 41 41 38 36 37 41 46 53 56 58 61 67 77 85 89 89 89 87 86 86 86 88 90 89 87 88 89 88 89 88 87 88 89 86 84 85 90
48 47 46 45 44 43 41 38 37 39 43 47 52 55 58 61 64 69 77 86 91 91 90 90 89 89 91 92 90 89 91 91 89 89 88 87 89 91 91 90 89 90
49 48 47 47 45 43 40 39 40 43 46 49 50 53 56 59 62 64 70 81 90 93 92 92 92 93 94 94 92 91 93 93 92 92 92 92 93 93 92 92 92 91
50 50 49 47 45 44 41 41 44 46 48 49 49 51 55 57 59 62 65 73 85 93 95 95 95 96 96 95 93 93 95 96 95 95 94 95 95 93 91 92 93 93
51 51 50 48 45 45 45 45 46 46 48 49 50 53 56 57 59 61 62 67 77 86 92 95 98 98 97 96 95 96 97 96 94 94 96 96 95 94 95 95 96 96
52 53 52 50 47 48 49 48 47 47 50 52 53 56 60 60 60 61 62 66 72 79 86 92 98 100 97 97 97 97 97 95 93 93 96 98 97 96 97 97 97 97
52 53 54 52 50 51 52 51 48 49 52 55 56 59 62 61 60 61 61 64 70 75 78 82 89 94 94 95 97 96 95 93 90 91 93 94 94 95 95 96 97 98
54 55 56 54 52 54 56 56 53 52 53 54 56 60 60 58 57 59 59 61 64 67 70 73 77 81 85 90 94 96 94 91 90 91 91 90 92 95 95 94 95 97